| time (UTC) | temp F | wind direction | speed MPH | gust MPH | rain 1hr in | rain 24hr in | rain mn in | humidity % | barometer mb |
| 20260903221604 | 68 | 137 | 0.0 | 5.0 | 0.00 | 0.00 | 0.00 | 28 | 1027.8 |
| 20260903220124 | 67 | 58 | 4.0 | 8.0 | 0.00 | 0.00 | 0.00 | 30 | 1027.8 |
| 20260903214605 | 70 | 0 | 0.0 | 1.0 | 0.00 | 0.00 | 0.00 | 28 | 1027.7 |
| 20260903213104 | 71 | 0 | 0.0 | 3.0 | 0.00 | 0.00 | 0.00 | 26 | 1027.7 |
| 20260903211619 | 72 | 0 | 0.0 | 0.0 | 0.00 | 0.00 | 0.00 | 28 | 1027.8 |
| 20260903210110 | 73 | 0 | 0.0 | 0.0 | 0.00 | 0.00 | 0.00 | 26 | 1027.7 |
| 20260903204603 | 75 | 0 | 0.0 | 1.0 | 0.00 | 0.00 | 0.00 | 25 | 1027.7 |
| 20260903203133 | 77 | 252 | 0.0 | 3.0 | 0.00 | 0.00 | 0.00 | 22 | 1027.6 |
| 20260903201603 | 79 | 0 | 0.0 | 0.0 | 0.00 | 0.00 | 0.00 | 22 | 1027.4 |
| 20260903200113 | 81 | 156 | 0.0 | 3.0 | 0.00 | 0.00 | 0.00 | 17 | 1027.2 |
| 20260903194605 | 83 | 135 | 0.0 | 3.0 | 0.00 | 0.00 | 0.00 | 15 | 1027.1 |
| 20260903193106 | 84 | 0 | 0.0 | 1.0 | 0.00 | 0.00 | 0.00 | 15 | 1027.0 |
| 20260903191605 | 86 | 0 | 0.0 | 5.0 | 0.00 | 0.00 | 0.00 | 14 | 1026.7 |
| 20260903190104 | 87 | 1 | 6.0 | 11.0 | 0.00 | 0.00 | 0.00 | 13 | 1026.5 |
| 20260903184559 | 87 | 312 | 3.0 | 7.0 | 0.00 | 0.00 | 0.00 | 15 | 1026.5 |
| 20260903183104 | 89 | 291 | 2.0 | 7.0 | 0.00 | 0.00 | 0.00 | 16 | 1026.4 |
| 20260903181558 | 91 | 273 | 2.0 | 6.0 | 0.00 | 0.00 | 0.00 | 19 | 1026.2 |
| 20260903180106 | 92 | 261 | 4.0 | 8.0 | 0.00 | 0.00 | 0.00 | 19 | 1026.1 |
| 20260903174601 | 92 | 260 | 4.0 | 8.0 | 0.00 | 0.00 | 0.00 | 18 | 1025.9 |
| 20260903173109 | 93 | 237 | 3.0 | 14.0 | 0.00 | 0.00 | 0.00 | 17 | 1026.0 |
| 20260903171616 | 94 | 259 | 3.0 | 5.0 | 0.00 | 0.00 | 0.00 | 17 | 1026.0 |
| 20260903170104 | 94 | 251 | 1.0 | 9.0 | 0.00 | 0.00 | 0.00 | 17 | 1025.9 |
| 20260903164640 | 94 | 267 | 1.0 | 11.0 | 0.00 | 0.00 | 0.00 | 17 | 1025.9 |
| 20260903163103 | 93 | 269 | 6.0 | 11.0 | 0.00 | 0.00 | 0.00 | 15 | 1025.8 |
| 20260903161600 | 93 | 219 | 9.0 | 15.0 | 0.00 | 0.00 | 0.00 | 18 | 1025.9 |
| 20260903160106 | 94 | 238 | 6.0 | 14.0 | 0.00 | 0.00 | 0.00 | 17 | 1025.9 |
| 20260903154606 | 94 | 236 | 3.0 | 9.0 | 0.00 | 0.00 | 0.00 | 18 | 1025.9 |
| 20260903153108 | 93 | 282 | 7.0 | 11.0 | 0.00 | 0.00 | 0.00 | 18 | 1025.9 |
| 20260903151604 | 93 | 219 | 5.0 | 10.0 | 0.00 | 0.00 | 0.00 | 17 | 1026.0 |
| 20260903150100 | 93 | 233 | 2.0 | 10.0 | 0.00 | 0.00 | 0.00 | 18 | 1026.1 |
| 20260903144609 | 93 | 243 | 2.0 | 12.0 | 0.00 | 0.00 | 0.00 | 18 | 1026.1 |
| 20260903143104 | 93 | 262 | 7.0 | 13.0 | 0.00 | 0.00 | 0.00 | 17 | 1026.3 |
| 20260903141606 | 92 | 213 | 7.0 | 15.0 | 0.00 | 0.00 | 0.00 | 16 | 1026.4 |
| 20260903134620 | 93 | 218 | 7.0 | 14.0 | 0.00 | 0.00 | 0.00 | 16 | 1026.6 |
| 20260903133108 | 92 | 224 | 6.0 | 13.0 | 0.00 | 0.00 | 0.00 | 17 | 1026.7 |
| 20260903131605 | 91 | 259 | 6.0 | 14.0 | 0.00 | 0.00 | 0.00 | 17 | 1026.9 |
| 20260903124615 | 90 | 253 | 6.0 | 15.0 | 0.00 | 0.00 | 0.00 | 19 | 1026.9 |
| 20260903123107 | 89 | 27 | 2.0 | 14.0 | 0.00 | 0.00 | 0.00 | 21 | 1027.0 |
| 20260903121606 | 89 | 210 | 4.0 | 11.0 | 0.00 | 0.00 | 0.00 | 20 | 1027.3 |
| 20260903120110 | 89 | 245 | 9.0 | 14.0 | 0.00 | 0.00 | 0.00 | 22 | 1027.3 |
| 20260903114600 | 88 | 304 | 4.0 | 12.0 | 0.00 | 0.00 | 0.00 | 21 | 1027.3 |
| 20260903113144 | 88 | 252 | 3.0 | 15.0 | 0.00 | 0.00 | 0.00 | 22 | 1027.5 |
| 20260903111604 | 88 | 190 | 4.0 | 7.0 | 0.00 | 0.00 | 0.00 | 25 | 1027.5 |
| 20260903110109 | 87 | 154 | 5.0 | 12.0 | 0.00 | 0.00 | 0.00 | 25 | 1027.6 |
| 20260903104622 | 86 | 210 | 6.0 | 12.0 | 0.00 | 0.00 | 0.00 | 27 | 1027.8 |
| 20260903103106 | 85 | 245 | 5.0 | 8.0 | 0.00 | 0.00 | 0.00 | 29 | 1027.8 |
| 20260903101617 | 85 | 252 | 5.0 | 9.0 | 0.00 | 0.00 | 0.00 | 30 | 1027.9 |
| 20260903100103 | 84 | 219 | 3.0 | 8.0 | 0.00 | 0.00 | 0.00 | 33 | 1028.0 |
| 20260903094601 | 82 | 240 | 1.0 | 4.0 | 0.00 | 0.00 | 0.00 | 38 | 1027.9 |
| 20260903093106 | 81 | 259 | 0.0 | 3.0 | 0.00 | 0.00 | 0.00 | 44 | 1027.9 |
| 20260903091605 | 79 | 0 | 0.0 | 2.0 | 0.00 | 0.00 | 0.00 | 47 | 1028.0 |
| 20260903090105 | 77 | 0 | 0.0 | 2.0 | 0.00 | 0.00 | 0.00 | 50 | 1027.8 |
| 20260903084610 | 75 | 36 | 1.0 | 2.0 | 0.00 | 0.00 | 0.00 | 56 | 1027.9 |
| 20260903083103 | 73 | 51 | 0.0 | 2.0 | 0.00 | 0.00 | 0.00 | 59 | 1027.8 |
| 20260903081603 | 71 | 32 | 2.0 | 4.0 | 0.00 | 0.00 | 0.00 | 62 | 1027.9 |
| 20260903080103 | 70 | 55 | 1.0 | 3.0 | 0.00 | 0.00 | 0.00 | 63 | 1027.9 |
| 20260903074558 | 68 | 56 | 0.0 | 1.0 | 0.00 | 0.00 | 0.00 | 64 | 1027.8 |
| 20260903073109 | 66 | 0 | 0.0 | 0.0 | 0.00 | 0.00 | 0.00 | 65 | 1027.9 |
| 20260903071610 | 64 | 0 | 0.0 | 1.0 | 0.00 | 0.00 | 0.00 | 67 | 1028.0 |
| 20260903070100 | 63 | 0 | 0.0 | 1.0 | 0.00 | 0.00 | 0.00 | 68 | 1027.8 |
| 20260903064614 | 60 | 0 | 0.0 | 3.0 | 0.00 | 0.00 | 0.00 | 74 | 1027.8 |
| 20260903063106 | 60 | 70 | 1.0 | 4.0 | 0.00 | 0.00 | 0.00 | 73 | 1027.7 |
| 20260903061607 | 60 | 68 | 0.0 | 2.0 | 0.00 | 0.00 | 0.00 | 72 | 1027.7 |
| 20260903060108 | 59 | 120 | 0.0 | 1.0 | 0.00 | 0.00 | 0.00 | 74 | 1027.4 |
| 20260903054603 | 59 | 0 | 0.0 | 1.0 | 0.00 | 0.00 | 0.00 | 73 | 1027.3 |
| 20260903053102 | 59 | 0 | 0.0 | 0.0 | 0.00 | 0.00 | 0.00 | 72 | 1027.2 |
| 20260903051616 | 60 | 0 | 0.0 | 0.0 | 0.00 | 0.00 | 0.00 | 72 | 1027.0 |
| 20260903044604 | 61 | 0 | 0.0 | 0.0 | 0.00 | 0.00 | 0.00 | 70 | 1027.0 |
| 20260903043207 | 61 | 0 | 0.0 | 1.0 | 0.00 | 0.00 | 0.00 | 70 | 1026.9 |
| 20260903041607 | 61 | 0 | 0.0 | 1.0 | 0.00 | 0.00 | 0.00 | 70 | 1026.8 |
| 20260903034602 | 62 | 125 | 2.0 | 4.0 | 0.00 | 0.00 | 0.00 | 69 | 1026.9 |
| 20260903033100 | 64 | 115 | 0.0 | 2.0 | 0.00 | 0.00 | 0.00 | 65 | 1026.8 |
| 20260903031603 | 65 | 0 | 0.0 | 2.0 | 0.00 | 0.00 | 0.00 | 64 | 1026.8 |
| 20260903030103 | 66 | 0 | 0.0 | 3.0 | 0.00 | 0.00 | 0.00 | 63 | 1026.9 |
| 20260903024607 | 66 | 92 | 0.0 | 2.0 | 0.00 | 0.00 | 0.00 | 64 | 1026.9 |
| 20260903023101 | 66 | 0 | 0.0 | 1.0 | 0.00 | 0.00 | 0.00 | 63 | 1026.8 |
| 20260903021603 | 67 | 0 | 0.0 | 4.0 | 0.00 | 0.00 | 0.00 | 60 | 1026.9 |
| 20260903020106 | 68 | 102 | 0.0 | 4.0 | 0.00 | 0.00 | 0.00 | 61 | 1026.7 |
| 20260903014604 | 68 | 70 | 1.0 | 3.0 | 0.00 | 0.00 | 0.00 | 60 | 1026.7 |
| 20260903013109 | 69 | 117 | 1.0 | 4.0 | 0.00 | 0.00 | 0.00 | 60 | 1026.7 |
| 20260903011608 | 69 | 58 | 1.0 | 4.0 | 0.00 | 0.00 | 0.00 | 59 | 1026.7 |
| 20260903010108 | 69 | 58 | 2.0 | 6.0 | 0.00 | 0.00 | 0.00 | 59 | 1026.8 |
| 20260903004607 | 69 | 93 | 1.0 | 5.0 | 0.00 | 0.00 | 0.00 | 58 | 1026.8 |
| 20260903003105 | 70 | 110 | 3.0 | 6.0 | 0.00 | 0.00 | 0.00 | 57 | 1026.9 |
| 20260903001603 | 70 | 70 | 3.0 | 5.0 | 0.00 | 0.00 | 0.00 | 57 | 1027.0 |
| 20260903000112 | 70 | 140 | 1.0 | 4.0 | 0.00 | 0.00 | 0.00 | 57 | 1027.0 |
| 20260902234618 | 70 | 65 | 2.0 | 5.0 | 0.00 | 0.00 | 0.00 | 56 | 1026.9 |
| 20260902233105 | 71 | 61 | 3.0 | 8.0 | 0.00 | 0.00 | 0.00 | 55 | 1027.0 |
| 20260902231617 | 71 | 63 | 4.0 | 8.0 | 0.00 | 0.00 | 0.00 | 55 | 1027.0 |
| 20260902230108 | 71 | 68 | 4.0 | 8.0 | 0.00 | 0.00 | 0.00 | 54 | 1027.0 |
| 20260902224612 | 72 | 89 | 4.0 | 7.0 | 0.00 | 0.00 | 0.00 | 54 | 1026.9 |
| 20260902223107 | 72 | 98 | 3.0 | 7.0 | 0.00 | 0.00 | 0.00 | 54 | 1026.7 |